FENGYUN 1C DEB

Satellite information

Favourite Embed

Satellite Type and Status

DEBRISIN ORBIT

Key statistics

Satellite FENGYUN 1C DEB at a glance.

Uptime

9663

Days in orbit

Revolutions

≈ 14.1

Per day

Orbit

SSO

Sun Synchronous Orbit

Inclination

98.7

Latest

Satellite identification and parameters

Extended collection of information and parameters for FENGYUN 1C DEB.

Object identification

Identified? True

Debris? True

Object name: FENGYUN 1C DEB

International designator: 1999-025DCN

Object number (NORAD): 33605

Object ID (CCSDS): 33605

Country: PEOPLES REPUBLIC OF CHINA (PRC)

Current information (Y/N): Y

RCS size: SMALL

Orbital parameters

Period: 102.3 minutes

Inclination: 98.6997 deg

SMA: 7245.654 km

Apoapsis: 907.626 km

Periapsis: 827.413 km

RAAN: 291.3707 deg

Eccentricy: 0.0055353

Argument of periapsis: 233.7569 deg

Mean anomaly: 137.7836 deg

Mean motion: 14.07622937 rev/day

Mean motion (dot): 0.00001145 rev/day2

B* drag term: 0.00069353 1/REarth

Two-line elements (TLE)

Creation date: Oct. 17, 2025, 7:46 p.m.

Reference frame: TEME

Reference center: EARTH

Epoch: Oct. 17, 2025, 6:32 a.m. UTC

TLE line 0: 0 FENGYUN 1C DEB

TLE line 1: 1 33605U 99025DCN 25290.27240155 .00001145 00000-0 69353-3 0 9996

TLE line 2: 2 33605 98.6997 291.3707 0055353 233.7569 137.7836 14.07622937590248

Live tracking on map

Real-time ground track for satellite FENGYUN 1C DEB.

In-orbit conjunctions

A list of the most updated potential collisions computed for object FENGYUN 1C DEB.

Target Orbit TCA Probability of collision Miss distance Type
GGSE 3 LEO 2025-10-19 19:46:41 0.001788959 99.0 (m) PAYLOAD

Associated space launch

Chinese polar orbiting meteorological satellite

FENGYUN 1C DEB was lifted into orbit during the mission ‘Long March 4B | Feng Yun 1C’, on board a Long March 4B space rocket.

The launch took place on May 10, 1999, 1:33 a.m. from Launch Complex 7.

For more information about the launch, click the button.

Launch to space Long March 4B | Feng Yun 1C
Long March 4B | Feng Yun 1C

Agency: N/A

Status: Launch Successful

Launch date: May 10, 1999, 1:33 a.m. UTC

Rocket: Long March 4B

Launch pad: Launch Complex 7

Location: Taiyuan Satellite Launch Center, People's Republic of China

...

Latest news about this satellite

There are no fresh news available about this satellite. Check back as we update our databases every day.


Newsletter sign-up

Weekly statistics, charts and insights to help you stay on top of the space industry.